Location: Igri�s
(42.2144°N, 0.4320°W)
Time: 10:01:54
(UTC+00:00)

Cosmos 1441 Rocket - Pass Details

Date: 13 August 2020
Orbit: 497 x 540 km, 81.1° (Epoch: 18 September)

Event Time Altitude Azimuth Distance (km) Brightness Sun altitude
Rises 19:55:03 0° 194° (SSW) 2,608 6.6 -9.3°
Reaches altitude 10° 19:57:11 10° 197° (SSW) 1,720 5.7 -9.6°
Maximum altitude 20:00:57 68° 281° (W) 548 3.5 -10.2°
Drops below altitude 10° 20:04:41 10° 5° (N) 1,715 6.2 -10.8°
Sets 20:06:49 0° 8° (N) 2,600 7.1 -11.2°
